Regional Weather Roundup
Issued by NWS

Home | Current Version | Previous Version | Graphics & Text | Print | Product List | Glossary On
Versions: 1 2 3 4 5 6 7 8 9 10 11 12 13 14 15 16 17 18 19 20 21 22 23 24 25 26 27 28 29 30 31 32 33 34 35 36 37 38 39 40 41 42 43 44 45 46 47 48 49 50
759
ASUS43 KLOT 061903
RWRIL

ILLINOIS REGIONAL WEATHER ROUNDUP
NATIONAL WEATHER SERVICE CHICAGO/ROMEOVILLE IL
200 PM CDT FRI MAY 06 2016

NOTE: "FAIR" INDICATES FEW OR NO CLOUDS BELOW 12,000 FEET WITH NO
SIGNIFICANT WEATHER AND/OR OBSTRUCTIONS TO VISIBILITY.

* THESE STATIONS ARE NOT UNDER NWS QUALITY CONTROL. THEY ALSO MAY NOT
  REPORT WEATHER SUCH AS PRECIPITATION OR FOG.

ILZ001-002-007-009-015-016-024-062000-
NORTHWEST ILLINOIS

CITY           SKY/WX    TMP DP  RH WIND       PRES   REMARKS
MOLINE         SUNNY     82  48  30 W12       29.92F HX  81
STERLING*      SUNNY     81  52  36 W12       29.91F HX  80
$$

ILZ003-004-008-010-011-017-018-062000-
NORTH CENTRAL ILLINOIS

CITY           SKY/WX    TMP DP  RH WIND       PRES   REMARKS
ROCKFORD       MOSUNNY   80  49  33 W8        29.90F
FREEPORT*      SUNNY     77  51  39 W10       29.92F
ROCHELLE*      SUNNY     78  50  37 W14G21    29.90F
DE KALB*       SUNNY     78  51  39 W16       29.91F
$$

ILZ005-006-012>014-019>023-062000-
NORTHEAST ILLINOIS

CITY           SKY/WX    TMP DP  RH WIND       PRES   REMARKS
CHICAGO-OHARE  MOSUNNY   76  44  32 SW12G18   29.88F
CHICAGO-MIDWAY MOSUNNY   75  43  31 SW12G20   29.90F
AURORA         SUNNY     80  49  33 W12       29.90F
LANSING*       SUNNY     73  43  34 W6        29.92F
WAUKEGAN       SUNNY     77  48  35 SW14      29.86F
DUPAGE AIRPORT SUNNY     78  47  33 W12       29.89F
WHEELING       SUNNY     77  44  30 VRB6      29.89F
NORTHERLY ISL    N/A     73  38  27 S9          N/A
NORTHERLY ISL    N/A     73  38  27 S9          N/A
$$

LMZ740>746-062000-
SOUTHERN LAKE MICHIGAN

STATION/POSITION SKY/WX   TEMP    WIND        PRES    VSBY  WAVE
                          AIR SEA DIR/SP/G                  HT/PER
                          (F)     (DEG/KT/KT) (MB)    (MI)  (FT/S)
SOUTHERN BUOY              44 41  160/ 10/ 10 1013.2          0
WILMETTE HARBOR            51 45  160/ 10/ 10   N/A           1/ 2
HARRISON CRIB              69     190/ 11/ 11   N/A
BURNHAM HARBOR             73     180/ 10/ 13   N/A
CALUMET HARBOR             71     180/  9/ 11 1012.6F
BURNS HARBOR               67      70/  3/  4 1014.2F
MICHIGAN CITY              67      CALM  /  1   N/A
ST. JOSEPH                 53 33                N/A           1
$$

ILZ025>027-034>036-040-047-049-050-058-095>099-062000-
WEST-CENTRAL ILLINOIS

CITY           SKY/WX    TMP DP  RH WIND       PRES   REMARKS
QUINCY         SUNNY     78  47  33 W9        29.99F
MACOMB*        SUNNY     79  42  26 W7G17     30.00F
PITTSFIELD*    SUNNY     77  45  32 SW7       30.02F
$$

ILZ028>032-037-038-041>044-048-051>054-059>061-062000-
CENTRAL ILLINOIS

CITY           SKY/WX    TMP DP  RH WIND       PRES   REMARKS
BLOOMINGTON    MOSUNNY   77  45  32 W14       29.97F
DECATUR        MOSUNNY   73  41  31 VRB5      29.98F
PEORIA         MOSUNNY   79  44  28 W13G20    29.96F
SPRINGFIELD    SUNNY     80  41  24 NW13      29.99F
TAYLORVILLE    NOT AVBL
$$

ILZ033-039-045-046-055>057-062-063-062000-
EAST-CENTRAL ILLINOIS

CITY           SKY/WX    TMP DP  RH WIND       PRES   REMARKS
CHAMPAIGN      MOSUNNY   72  39  30 W8        29.98F
MATTOON        SUNNY     71  39  31 VRB3      29.99F
$$

ILZ079-100>102-062000-
SOUTHWEST ILLINOIS

CITY           SKY/WX    TMP DP  RH WIND       PRES   REMARKS
ALTON          SUNNY     73  43  33 VRB7      30.03F
BELLEVILLE     MOSUNNY   75  43  32 VRB3      30.02F
CAHOKIA*       SUNNY     75  41  29 NW5       30.03F
SPARTA*        SUNNY     71  44  38 CALM      30.06S
$$

ILZ064>066-069>071-074>076-080>082-084>086-088>090-092>094-062000-
SOUTH-CENTRAL ILLINOIS

CITY           SKY/WX    TMP DP  RH WIND       PRES   REMARKS
CARBONDALE     SUNNY     71  42  35 VRB6      30.04F
MARION         SUNNY     72  43  35 W9        30.05F
MT. VERNON     SUNNY     72  45  37 W5        30.04F
SALEM*         SUNNY     72  44  36 W7        30.03S
$$

ILZ067-068-072-073-078-083-087-091-062000-
SOUTHEAST ILLINOIS

CITY           SKY/WX    TMP DP  RH WIND       PRES   REMARKS
LAWRENCEVILLE  SUNNY     70  43  37 CALM      30.00F
FLORA*         SUNNY     73  43  34 NW8       30.03S
HARRISBURG*    SUNNY     71  45  40 W5        30.03F
ROBINSON*      SUNNY     69  46  44 NW8       30.01F
$$

ABBREVIATIONS USED IN REMARKS
   TC - TEMPERATURE IN CELSIUS
  WCI - WIND CHILL INDEX
   HX - HEAT INDEX
  VSB - VISIBILITY
$$





USA.gov is the U.S. government's official web portal to all federal, state and local government web resources and services.